Meridian, MS

10:40 PM CST on February 20, 2017 (GMT -0600)
Meridian Naval Air Station

Weather History for KNMM - December, 2012

Change the Weather History Date:

Friday, December 28, 2012

  Actual Average Record
Temperature  
Mean Temperature 42 °F -  
Max Temperature 48 °F 53 °F 75 °F (2016)
Min Temperature 35 °F 35 °F 19 °F (2010)
Degree Days  
Heating Degree Days 24    
Moisture  
Dew Point 40 °F    
Average Humidity 91    
Maximum Humidity 100    
Minimum Humidity 73    
Precipitation  
Precipitation 1.25 in - - ()
Sea Level Pressure  
Sea Level Pressure 29.93 in    
Wind  
Wind Speed 5 mph (East)    
Max Wind Speed 23 mph    
Max Gust Speed 33 mph    
Visibility 5 miles    
Events Rain    
Averages and records for this station are not official NWS values.
T = Trace of Precipitation, MM = Missing Value Source: NWS Daily Summary

Daily Weather History Graph

Daily Weather History Graph

Search for Another Location

Airport or City:

Trip Planner

Search our weather history database for the weather conditions in past years. The results will help you decide how hot, cold, wet, or windy it might be!

Date:

Astronomy

Dec. 28, 2012 Rise Set
Actual Time 6:55 AM CST 4:57 PM CST
Civil Twilight 6:28 AM CST 5:24 PM CST
Nautical Twilight 5:57 AM CST 5:55 PM CST
Astronomical Twilight 5:27 AM CST 6:25 PM CST
Moon 5:30 PM CST (12/28) 6:52 AM CST (12/28)
Length of Visible Light 10h 56m
Length of Day
10h 01m
Full, 100% of the Moon is Illuminated
Dec 28
Full
Jan 4
Last Quarter
Jan 11
New
Jan 18
First Quarter
Jan 26
Full

Hourly Weather History & Observations

Time (CST) Temp. Windchill Dew Point Humidity Pressure Visibility Wind Dir Wind Speed Gust Speed Precip Events Conditions
12:56 AM 35.1 °F - 30.0 °F 82% 30.11 in 10.0 mi Calm Calm - N/A   Partly Cloudy
1:56 AM 36.0 °F - 30.9 °F 82% 30.11 in 10.0 mi Calm Calm - N/A   Mostly Cloudy
2:56 AM 35.1 °F - 30.9 °F 85% 30.10 in 10.0 mi Calm Calm - N/A   Mostly Cloudy
3:56 AM 35.1 °F 30.1 °F 30.9 °F 85% 30.08 in 10.0 mi East 5.8 mph - N/A   Overcast
4:56 AM 35.1 °F 31.0 °F 30.9 °F 85% 30.06 in 10.0 mi ESE 4.6 mph - N/A   Overcast
5:56 AM 36.0 °F 30.3 °F 30.9 °F 82% 30.06 in 10.0 mi East 6.9 mph - N/A   Overcast
6:56 AM 36.0 °F 29.6 °F 32.0 °F 86% 30.06 in 10.0 mi SE 8.1 mph - N/A   Overcast
7:56 AM 39.0 °F 34.8 °F 32.0 °F 76% 30.06 in 10.0 mi ENE 5.8 mph - N/A   Overcast
8:56 AM 39.0 °F 32.8 °F 34.0 °F 82% 30.07 in 10.0 mi East 9.2 mph - 0.00 in   Overcast
9:56 AM 42.1 °F 38.4 °F 34.0 °F 73% 30.06 in 10.0 mi East 5.8 mph - N/A   Mostly Cloudy
10:56 AM 42.1 °F 39.2 °F 37.9 °F 85% 30.04 in 4.0 mi NE 4.6 mph - 0.03 in Rain Light Rain
11:56 AM 42.1 °F 39.2 °F 39.9 °F 92% 29.99 in 2.5 mi ENE 4.6 mph - 0.08 in Rain Light Rain
12:06 PM 42.8 °F 39.3 °F 39.2 °F 87% 29.94 in 3.0 mi East 5.8 mph - 0.01 in Rain Light Rain
12:54 PM 42.8 °F 40.1 °F 39.2 °F 87% 29.93 in 2.5 mi East 4.6 mph - 0.06 in Rain Light Rain
12:56 PM 42.1 °F 38.4 °F 39.9 °F 92% 29.96 in 2.5 mi East 5.8 mph - 0.06 in Rain Light Rain
1:17 PM 42.8 °F 37.0 °F 39.2 °F 87% 29.89 in 1.8 mi East 10.4 mph - 0.06 in Rain Rain
1:40 PM 42.8 °F 37.0 °F 41.0 °F 93% 29.87 in 2.0 mi East 10.4 mph - 0.15 in Rain Rain
1:56 PM 43.0 °F 40.3 °F 41.0 °F 93% 29.92 in 3.0 mi East 4.6 mph - 0.19 in Rain Light Rain
2:01 PM 42.8 °F 40.1 °F 41.0 °F 93% 29.89 in 2.0 mi ENE 4.6 mph - 0.02 in Rain Light Rain
2:25 PM 42.8 °F 40.1 °F 42.8 °F 100% 29.87 in 2.0 mi East 4.6 mph - 0.08 in Rain Light Rain
2:56 PM 43.0 °F 40.3 °F 42.1 °F 97% 29.92 in 2.0 mi East 4.6 mph - 0.19 in Rain Rain
3:11 PM 42.8 °F 37.5 °F 42.8 °F 100% 29.85 in 1.8 mi East 9.2 mph - 0.06 in Rain Rain
3:56 PM 45.0 °F 43.5 °F 43.0 °F 93% 29.90 in 1.2 mi ESE 3.5 mph - 0.27 in Rain Heavy Rain
4:25 PM 44.6 °F 41.4 °F 44.6 °F 100% 29.84 in 2.0 mi East 5.8 mph - 0.10 in Rain Rain
4:30 PM 44.6 °F - 44.6 °F 100% 29.85 in 3.0 mi Calm Calm - 0.11 in Rain Rain
4:56 PM 45.0 °F 41.2 °F 44.1 °F 97% 29.85 in 4.0 mi ESE 6.9 mph - 0.18 in Rain Light Rain
5:47 PM 46.4 °F 41.9 °F 44.6 °F 93% 29.79 in 5.0 mi ESE 9.2 mph - 0.02 in Rain Light Rain
5:56 PM 46.0 °F 41.0 °F 45.0 °F 96% 29.82 in 7.0 mi ESE 10.4 mph - 0.03 in Rain Light Rain
6:56 PM 46.9 °F - 46.0 °F 97% 29.84 in 4.0 mi SE 9.2 mph - 0.09 in Rain Rain
7:03 PM 46.4 °F 41.5 °F 46.4 °F 100% 29.79 in 3.0 mi ESE 10.4 mph - 0.02 in Rain Rain
7:32 PM 48.2 °F - 46.4 °F 93% 29.80 in 2.0 mi SE 8.1 mph - 0.10 in Rain Rain
7:43 PM 48.2 °F - 46.4 °F 93% 29.79 in 4.0 mi SE 6.9 mph - 0.12 in Rain Light Rain
7:56 PM 46.9 °F - 46.0 °F 97% 29.83 in 7.0 mi SE 8.1 mph - 0.13 in Rain Light Rain
8:56 PM 46.9 °F - 45.0 °F 93% 29.86 in 10.0 mi Variable 4.6 mph - 0.00 in   Overcast
9:56 PM 46.9 °F - 46.0 °F 97% 29.88 in 2.5 mi West 3.5 mph - 0.00 in   Overcast
10:37 PM 48.2 °F - 46.4 °F 93% 29.85 in 3.0 mi West 5.8 mph - N/A   Overcast
10:51 PM 48.2 °F - 46.4 °F 93% 29.86 in 6.0 mi WNW 17.3 mph 23.0 mph N/A   Overcast
10:56 PM 48.9 °F - 46.0 °F 90% 29.90 in 6.0 mi West 18.4 mph 23.0 mph N/A   Overcast
11:19 PM 46.4 °F 38.3 °F 44.6 °F 93% 29.89 in 9.0 mi WNW 23.0 mph 33.4 mph N/A   Overcast
11:56 PM 45.0 °F 37.4 °F 39.9 °F 82% 29.95 in 10.0 mi WNW 18.4 mph 23.0 mph N/A   Overcast